Temperature
-1 -1 -1 -1 -1 -0 -0 -0 -0 -0 0 0 1 1 1 1 1 1 1 1 1 2 2 2 2 2 2 3 3 3 3 3 3 3 3 3 3 3 4 3 3 3 4
-1 -1 -1 -1 -1 -1 -1 -1 -0 -0 -0 0 0 1 1 1 1 1 1 1 1 1 1 1 1 2 2 2 2 2 2 2 2 2 3 3 3 3 3 3 3 3 3
-1 -1 -1 -1 -1 -1 -1 -1 -1 -1 -1 -0 -0 -0 0 0 0 0 0 0 0 1 1 1 1 1 1 1 2 2 2 2 2 2 2 2 2 2 2 3 2 2 2
-2 -2 -2 -1 -1 -1 -1 -1 -1 -1 -1 -1 -1 -0 -0 -0 -0 -0 -0 0 0 0 0 0 0 1 1 1 1 1 1 1 1 1 1 2 2 2 2 2 2 2 2
-2 -2 -2 -2 -2 -2 -2 -1 -1 -1 -1 -1 -1 -1 -1 -1 -1 -1 -1 -0 -0 -0 -0 -0 -0 0 0 0 0 0 1 1 1 1 1 1 1 1 1 1 1 1 1
-3 -3 -3 -2 -2 -2 -2 -2 -2 -2 -2 -2 -1 -1 -1 -1 -1 -1 -1 -1 -1 -1 -1 -1 -1 -1 -0 -0 -0 -0 -0 -0 -0 -0 0 0 0 1 0 0 0 0 0
-4 -3 -3 -3 -3 -2 -2 -2 -2 -2 -2 -2 -2 -2 -2 -2 -2 -2 -2 -2 -1 -1 -1 -1 -1 -1 -1 -1 -1 -1 -1 -1 -1 -1 -0 -0 -0 -0 -0 -0 -0 -0 -0
-4 -4 -4 -3 -3 -3 -3 -3 -3 -3 -3 -3 -3 -3 -3 -3 -2 -2 -2 -2 -2 -2 -2 -2 -2 -2 -1 -2 -2 -1 -1 -1 -1 -1 -1 -1 -1 -1 -1 -1 -1 -1 -1
-5 -4 -4 -4 -4 -4 -3 -3 -3 -3 -3 -3 -3 -3 -3 -3 -3 -3 -3 -3 -3 -2 -2 -2 -2 -2 -2 -2 -2 -2 -2 -2 -2 -2 -2 -2 -2 -1 -1 -1 -2 -2 -2
-5 -5 -5 -5 -4 -4 -4 -4 -4 -4 -4 -4 -4 -4 -3 -3 -3 -3 -3 -3 -3 -3 -3 -3 -3 -3 -3 -3 -3 -3 -2 -2 -2 -2 -2 -2 -2 -2 -2 -2 -2 -2 -2
-6 -6 -6 -5 -5 -5 -5 -5 -5 -5 -5 -4 -4 -4 -4 -4 -4 -4 -4 -3 -3 -3 -3 -3 -3 -3 -3 -3 -3 -3 -3 -3 -3 -3 -3 -3 -3 -2 -2 -2 -3 -3 -3
-7 -6 -6 -6 -6 -6 -5 -5 -5 -5 -5 -5 -5 -5 -4 -4 -4 -4 -4 -4 -4 -4 -4 -4 -4 -4 -4 -4 -4 -4 -4 -4 -4 -4 -4 -4 -3 -3 -3 -3 -3 -3 -3
-7 -7 -7 -7 -6 -6 -6 -6 -6 -6 -6 -6 -6 -5 -5 -5 -5 -5 -5 -4 -5 -4 -4 -4 -4 -5 -5 -5 -4 -4 -4 -4 -4 -4 -4 -4 -4 -4 -4 -4 -4 -4 -4
-7 -7 -7 -7 -7 -7 -7 -7 -7 -7 -7 -7 -6 -6 -6 -6 -5 -5 -5 -5 -5 -5 -5 -5 -5 -5 -5 -5 -5 -5 -5 -5 -5 -5 -5 -5 -5 -5 -4 -4 -4 -4 -4
-8 -8 -8 -8 -8 -8 -8 -8 -8 -8 -8 -7 -7 -7 -7 -6 -6 -6 -6 -6 -6 -6 -6 -6 -6 -6 -6 -6 -6 -6 -6 -6 -6 -6 -6 -6 -5 -5 -5 -5 -5 -5 -5
-9 -8 -8 -8 -8 -8 -8 -8 -8 -8 -8 -8 -8 -8 -7 -7 -7 -7 -7 -6 -6 -6 -6 -6 -6 -6 -6 -6 -6 -6 -6 -6 -6 -6 -6 -6 -6 -6 -6 -6 -6 -6 -6
-9 -9 -9 -9 -9 -9 -9 -9 -9 -9 -9 -9 -9 -8 -8 -8 -8 -7 -7 -7 -7 -7 -7 -7 -7 -7 -7 -7 -7 -7 -7 -7 -7 -7 -7 -7 -7 -7 -7 -6 -6 -6 -6
-10 -10 -10 -9 -9 -9 -9 -9 -10 -9 -9 -9 -9 -9 -9 -8 -8 -8 -8 -8 -8 -8 -8 -8 -8 -8 -8 -8 -8 -8 -8 -8 -8 -8 -8 -8 -8 -7 -7 -7 -7 -7 -7
-10 -10 -10 -10 -10 -10 -10 -10 -10 -10 -10 -10 -10 -9 -9 -9 -9 -9 -8 -8 -8 -9 -9 -9 -9 -9 -9 -9 -9 -9 -9 -8 -8 -8 -8 -8 -8 -8 -8 -8 -7 -7 -7
-11 -11 -10 -10 -10 -10 -10 -10 -10 -10 -10 -10 -10 -10 -10 -9 -9 -9 -9 -9 -9 -9 -9 -9 -9 -9 -9 -9 -9 -9 -9 -9 -9 -9 -9 -9 -9 -8 -8 -8 -8 -8 -8
-11 -11 -11 -11 -11 -11 -11 -11 -11 -11 -11 -11 -11 -11 -11 -10 -10 -10 -10 -10 -10 -10 -10 -10 -10 -10 -10 -10 -10 -10 -10 -10 -9 -9 -9 -9 -9 -9 -9 -9 -8 -8 -8
-11 -11 -11 -11 -11 -11 -11 -11 -11 -11 -11 -11 -11 -11 -11 -11 -11 -11 -11 -11 -11 -11 -11 -11 -11 -11 -10 -10 -10 -10 -10 -10 -10 -10 -10 -10 -10 -10 -9 -9 -9 -9 -9
-12 -12 -12 -12 -12 -12 -11 -11 -12 -12 -12 -11 -11 -11 -11 -11 -11 -11 -11 -11 -11 -11 -11 -11 -11 -11 -11 -11 -11 -11 -11 -11 -11 -10 -10 -10 -10 -10 -10 -10 -10 -10 -9
-12 -12 -12 -12 -12 -12 -12 -12 -12 -12 -12 -12 -12 -12 -12 -11 -11 -11 -11 -11 -11 -11 -11 -11 -11 -11 -11 -11 -11 -11 -11 -11 -11 -11 -11 -11 -11 -11 -10 -10 -10 -10 -10
-13 -13 -13 -13 -13 -12 -12 -12 -12 -12 -12 -12 -12 -12 -12 -12 -12 -12 -12 -12 -11 -11 -11 -11 -11 -11 -11 -11 -12 -12 -12 -11 -11 -11 -11 -11 -11 -11 -11 -11 -11 -11 -11
-13 -13 -13 -13 -13 -13 -13 -13 -13 -13 -13 -13 -13 -13 -13 -13 -12 -12 -12 -12 -12 -12 -12 -12 -12 -12 -12 -12 -12 -12 -12 -12 -12 -12 -12 -12 -12 -11 -11 -11 -11 -11 -11
Wind_Speed
4 4 4 5 5 5 5 6 6 6 6 6 6 6 6 6 7 6 6 7 7 6 5 6 5 4 4 4 3 3 3 3 3 3 1 2 3 3 3 4 4 5 5
4 4 4 4 4 5 5 5 5 5 6 6 6 6 6 6 7 8 8 7 8 8 7 7 6 5 5 4 4 4 3 3 3 4 2 2 3 4 3 3 3 4 5
4 4 4 4 4 5 5 5 5 5 5 5 6 6 6 6 7 8 8 8 8 8 8 8 7 6 6 5 5 5 4 3 3 4 3 2 2 3 3 3 3 3 5
3 3 3 4 5 5 5 5 5 5 5 5 6 6 6 6 7 8 8 8 8 8 8 7 7 8 8 7 6 6 4 3 3 3 3 3 2 2 3 3 3 2 3
3 3 4 4 4 3 4 4 4 4 5 5 5 5 5 5 7 8 8 8 8 7 6 6 7 8 8 7 6 6 5 4 4 4 4 3 3 3 4 3 3 2 3
4 4 4 3 2 2 3 3 2 3 3 4 4 5 5 5 8 10 8 8 8 8 7 6 6 7 8 8 8 8 7 6 6 5 4 6 5 4 4 3 3 2 3
5 5 4 3 3 2 2 1 2 2 2 3 4 4 5 6 8 9 9 7 7 7 7 6 5 6 7 6 6 7 7 8 8 6 6 7 7 6 6 5 5 4 5
5 5 5 4 3 3 2 2 2 2 2 2 3 3 3 5 7 8 8 6 5 6 6 7 6 6 6 6 6 5 5 6 7 6 6 6 6 6 7 6 5 3 3
6 6 5 4 3 3 2 3 2 2 2 2 2 2 3 3 6 7 7 5 4 5 6 7 7 6 8 8 6 6 5 4 5 6 7 7 7 7 5 3 4 4 4
6 6 6 4 3 3 3 3 2 2 2 2 2 1 2 2 4 5 7 4 4 4 4 5 8 8 8 9 7 6 7 5 4 3 3 4 4 5 6 5 5 5 3
7 6 5 5 4 3 3 3 2 2 2 2 2 2 2 2 3 4 5 3 4 4 3 3 4 7 8 8 7 6 7 5 4 3 2 2 2 3 4 4 5 4 4
6 6 6 5 4 4 3 3 3 2 2 2 2 2 2 3 3 3 4 5 4 3 3 3 4 6 7 7 6 6 6 4 2 2 2 2 3 3 3 4 4 4 5
6 6 6 6 5 4 3 3 3 3 2 2 2 2 3 3 3 4 4 4 4 3 2 4 4 5 6 5 5 5 4 3 3 3 3 3 3 3 2 2 2 2 3
6 6 5 5 5 5 4 3 3 3 2 2 2 2 2 2 2 2 2 2 2 2 2 2 3 4 3 3 2 2 2 3 3 3 3 2 1 2 2 2 3 2 2
6 5 5 5 4 4 4 3 3 3 3 3 2 2 2 2 3 3 1 1 1 2 2 1 1 1 2 2 1 1 2 2 2 2 2 2 2 2 3 2 2 2 3
5 5 4 4 4 4 4 4 6 6 7 7 5 4 3 3 4 3 3 2 2 2 2 2 2 2 2 2 2 2 2 2 2 2 2 3 3 3 3 2 2 2 3
4 5 4 4 4 3 3 3 4 5 7 8 8 7 6 5 5 3 3 2 1 1 1 1 1 2 2 2 2 2 2 2 2 2 3 3 3 3 3 3 3 3 3
5 5 5 3 3 3 3 3 3 3 4 5 7 8 8 7 6 4 3 2 2 2 1 1 0 1 1 1 2 2 2 2 2 2 2 3 3 3 3 3 4 4 3
5 4 4 3 3 3 3 3 3 3 3 4 4 6 8 7 7 6 4 2 2 1 1 1 0 0 1 1 1 2 2 2 2 2 2 3 3 3 3 4 4 5 4
4 6 6 4 3 3 3 3 3 3 3 3 4 4 5 4 4 4 3 2 1 1 1 1 1 1 1 1 1 1 2 2 2 2 2 2 3 3 4 4 4 3 3
4 5 6 4 3 3 3 3 3 3 3 3 3 4 5 3 3 3 2 2 2 2 1 1 1 1 1 1 1 1 2 2 2 2 2 3 3 3 3 3 3 3 3
3 3 3 3 3 3 3 3 3 3 3 4 4 4 7 4 3 2 2 2 2 2 2 2 1 2 2 1 1 2 2 3 3 2 3 3 3 3 3 3 3 3 3
3 4 4 4 3 4 4 3 3 3 3 4 4 4 4 3 3 3 3 3 3 3 3 2 2 2 2 3 3 3 3 3 3 3 3 3 3 3 3 3 3 3 3
3 3 3 3 4 3 3 3 3 4 4 4 4 4 4 3 3 4 4 4 3 3 3 3 3 3 3 4 4 4 5 6 6 5 5 4 4 4 3 3 4 4 4
3 3 3 3 3 4 4 4 4 4 4 4 4 4 4 4 4 4 4 4 4 4 4 5 4 4 5 5 5 6 7 8 8 7 6 5 5 5 4 4 4 4 3
3 3 3 3 3 3 4 4 4 4 4 4 4 4 4 4 4 4 4 4 4 4 5 5 6 6 6 7 7 8 9 9 10 10 7 5 5 5 4 4 4 4 4
Wind_Direction
254 249 239 234 232 228 225 228 226 226 219 215 212 212 210 204 198 202 208 197 200 204 203 197 204 206 200 193 188 191 194 188 220 253 254 230 217 219 233 231 234 235 234
258 253 248 244 236 228 229 231 222 224 218 211 209 207 209 208 203 205 208 202 203 205 202 201 204 205 209 197 192 200 207 199 201 233 255 233 237 220 221 231 240 239 239
267 254 256 250 240 236 235 235 223 224 224 217 210 210 208 209 212 211 208 204 206 207 204 204 206 202 211 201 197 204 210 209 199 210 237 241 246 220 216 243 246 255 253
288 267 260 255 247 243 240 234 226 223 223 225 215 215 213 213 216 215 214 209 208 210 210 208 209 209 211 204 207 208 203 201 194 203 223 231 236 222 204 222 251 261 265
317 307 296 286 268 252 242 239 230 226 228 224 213 220 219 219 218 213 213 212 208 210 213 213 216 218 218 210 211 203 197 202 202 205 215 228 232 211 221 220 249 270 278
326 317 318 316 300 268 254 252 244 234 228 219 214 218 223 229 229 224 219 208 209 206 209 213 218 226 221 221 225 220 208 203 206 212 217 220 225 221 220 223 232 253 264
330 331 330 328 320 304 296 282 271 258 246 233 222 216 225 236 236 230 227 212 202 202 204 208 219 224 217 209 221 226 228 233 228 219 217 222 224 217 211 219 226 236 251
331 332 335 334 328 326 326 303 289 287 266 248 238 220 225 248 246 235 227 214 206 205 206 207 213 212 214 208 206 212 225 233 239 235 229 232 232 222 214 221 229 241 275
335 330 330 328 326 322 320 313 311 306 296 274 257 230 228 262 257 236 228 210 211 213 213 215 214 210 216 214 207 210 223 239 250 244 245 245 246 243 231 205 204 223 259
326 324 326 327 326 318 315 316 324 312 299 301 312 302 257 263 264 243 229 212 215 221 215 213 220 218 215 215 208 205 217 227 225 237 246 252 247 241 234 227 212 219 241
330 333 338 337 331 331 339 342 340 325 331 337 325 319 310 287 274 254 242 216 212 214 212 215 220 222 219 218 218 212 221 219 204 208 222 232 236 234 231 234 225 214 225
340 344 344 344 342 347 355 350 349 349 347 334 329 326 323 308 292 263 250 241 228 208 218 221 215 216 217 218 222 221 220 214 193 200 216 234 237 238 241 239 243 239 237
348 349 347 348 352 354 355 356 356 357 348 325 323 322 324 324 310 292 269 254 240 223 226 226 217 215 217 218 224 221 213 195 191 208 226 243 248 245 242 249 258 253 271
349 349 350 354 356 360 358 358 359 352 344 333 331 324 325 326 323 305 295 281 259 251 248 237 230 223 217 214 218 218 205 196 200 213 224 238 243 235 236 234 237 230 249
348 350 353 356 355 358 2 3 360 355 344 339 324 316 319 320 320 316 275 248 210 207 181 178 182 194 190 185 190 196 196 204 217 217 221 236 236 237 247 237 232 234 238
349 350 351 353 354 357 356 358 2 2 360 358 353 342 329 329 331 334 332 299 244 210 178 163 182 191 196 199 202 211 214 213 213 215 220 230 233 234 245 250 246 234 238
345 342 342 348 350 349 352 357 356 357 6 9 6 2 357 351 347 345 344 1 30 61 107 146 176 195 204 204 207 211 224 224 211 213 223 231 235 241 243 243 241 238 240
345 346 346 341 341 343 346 349 351 353 352 353 356 2 1 359 3 6 8 36 38 42 56 68 127 188 203 210 218 225 225 220 215 218 225 233 236 242 251 246 241 238 242
344 341 339 339 341 345 349 352 354 355 354 348 349 353 358 6 16 22 25 40 52 40 36 19 4 286 250 224 223 220 220 223 224 224 232 237 240 239 248 248 244 251 255
339 347 350 345 347 351 353 354 355 355 355 355 354 349 351 5 18 15 21 23 18 1 347 334 324 305 277 256 234 217 216 224 229 232 237 242 247 246 248 248 244 245 250
332 338 348 349 351 349 351 352 350 348 348 346 342 343 353 2 1 360 357 351 340 325 313 306 296 291 277 262 243 232 228 238 240 241 243 247 248 249 253 252 248 248 249
329 332 338 340 343 342 346 347 347 347 345 341 336 340 348 357 354 349 342 334 326 316 306 294 285 276 263 254 240 234 237 243 245 243 246 250 253 255 254 250 243 242 243
334 337 340 339 337 338 345 345 344 339 334 331 329 332 339 343 339 334 327 321 320 317 316 307 288 286 286 271 256 241 238 246 250 243 244 246 248 248 245 242 236 233 240
338 338 336 333 335 336 333 331 329 328 327 325 324 324 325 324 321 318 316 315 314 314 312 306 296 289 288 287 279 269 259 257 255 248 240 238 241 246 243 238 235 235 236
332 329 327 325 325 326 324 321 319 319 319 319 318 316 315 313 310 308 307 307 305 306 305 303 301 294 285 282 281 278 273 270 266 258 244 237 241 240 239 237 235 235 237
326 323 319 317 315 316 316 314 314 313 310 309 310 308 304 303 302 301 300 300 299 299 299 296 293 288 286 282 280 278 277 273 270 268 254 240 238 239 235 237 233 233 233
Height
1456 1456 1456 1456 1456 1457 1458 1459 1460 1461 1462 1463 1465 1466 1467 1468 1470 1472 1473 1475 1477 1480 1482 1484 1486 1489 1491 1493 1495 1498 1500 1502 1502 1503 1505 1507 1508 1509 1510 1511 1512 1513 1514
1452 1452 1452 1452 1452 1453 1453 1454 1455 1456 1457 1458 1460 1461 1462 1463 1465 1467 1468 1470 1473 1475 1477 1479 1482 1484 1486 1489 1490 1493 1495 1497 1498 1498 1500 1502 1503 1505 1506 1506 1507 1508 1509
1449 1448 1448 1448 1448 1448 1449 1450 1451 1452 1452 1453 1454 1455 1457 1458 1460 1462 1464 1466 1468 1469 1472 1474 1476 1479 1481 1483 1486 1488 1490 1492 1494 1495 1496 1497 1499 1500 1501 1501 1502 1503 1504
1446 1445 1444 1444 1444 1444 1445 1445 1446 1447 1448 1448 1449 1450 1452 1453 1455 1457 1459 1461 1463 1465 1467 1469 1472 1474 1476 1478 1480 1483 1485 1487 1488 1490 1491 1492 1494 1494 1496 1496 1497 1498 1498
1443 1441 1441 1441 1440 1441 1441 1441 1442 1443 1443 1444 1444 1446 1447 1448 1450 1452 1454 1456 1458 1460 1462 1464 1467 1469 1471 1473 1475 1477 1479 1481 1483 1484 1485 1487 1488 1489 1490 1490 1492 1492 1493
1440 1439 1438 1437 1437 1437 1437 1437 1437 1438 1439 1439 1440 1441 1442 1444 1445 1447 1449 1451 1452 1454 1457 1459 1461 1464 1466 1468 1471 1473 1474 1476 1477 1479 1479 1481 1482 1484 1485 1486 1487 1487 1487
1439 1437 1436 1435 1434 1434 1434 1434 1433 1434 1434 1434 1435 1437 1438 1439 1441 1442 1444 1446 1447 1449 1452 1454 1456 1458 1461 1463 1465 1467 1469 1471 1473 1474 1474 1475 1477 1479 1480 1480 1481 1482 1482
1437 1436 1434 1433 1432 1432 1431 1431 1431 1430 1430 1431 1431 1432 1433 1435 1436 1438 1439 1441 1442 1444 1446 1449 1451 1453 1455 1458 1460 1462 1463 1465 1467 1468 1469 1471 1472 1474 1475 1476 1476 1477 1477
1436 1434 1433 1432 1431 1430 1429 1428 1428 1427 1427 1427 1428 1428 1429 1430 1432 1434 1435 1436 1438 1439 1441 1444 1446 1447 1450 1452 1455 1456 1457 1459 1461 1463 1464 1466 1467 1468 1469 1471 1471 1472 1471
1435 1433 1431 1430 1429 1428 1427 1426 1426 1425 1425 1425 1424 1425 1426 1427 1428 1430 1432 1433 1433 1435 1436 1438 1440 1442 1445 1447 1449 1451 1452 1453 1455 1457 1459 1460 1461 1462 1464 1465 1466 1466 1466
1434 1432 1430 1429 1428 1427 1426 1425 1424 1423 1423 1422 1422 1422 1423 1424 1425 1426 1427 1429 1430 1431 1432 1433 1435 1438 1440 1442 1444 1446 1447 1449 1450 1452 1453 1454 1455 1456 1458 1459 1460 1461 1461
1432 1430 1429 1428 1426 1425 1424 1423 1422 1421 1421 1420 1420 1420 1420 1421 1422 1423 1423 1425 1426 1427 1428 1430 1431 1434 1436 1438 1439 1441 1443 1445 1446 1447 1448 1449 1450 1451 1452 1453 1454 1455 1456
1432 1429 1428 1426 1425 1424 1422 1421 1420 1420 1419 1418 1418 1417 1418 1419 1419 1420 1420 1421 1422 1423 1424 1426 1428 1430 1431 1433 1435 1436 1438 1439 1440 1442 1442 1443 1445 1445 1447 1448 1448 1450 1450
1430 1428 1427 1425 1424 1423 1421 1420 1419 1419 1418 1417 1417 1416 1416 1417 1417 1417 1417 1418 1419 1420 1421 1422 1424 1425 1427 1428 1430 1432 1433 1434 1435 1437 1437 1439 1440 1441 1441 1442 1443 1443 1444
1430 1428 1426 1424 1423 1422 1421 1420 1419 1418 1418 1417 1416 1415 1415 1414 1415 1415 1415 1415 1416 1416 1417 1418 1419 1421 1422 1423 1425 1427 1428 1430 1431 1432 1433 1434 1434 1435 1436 1437 1438 1438 1438
1429 1427 1425 1424 1422 1421 1420 1419 1418 1417 1417 1416 1415 1414 1413 1413 1412 1412 1412 1412 1413 1414 1414 1414 1415 1416 1418 1419 1420 1422 1423 1425 1426 1427 1428 1429 1430 1430 1431 1432 1433 1433 1433
1429 1427 1425 1424 1422 1420 1419 1417 1416 1416 1415 1414 1412 1411 1410 1410 1409 1409 1409 1409 1410 1411 1411 1411 1412 1413 1414 1415 1416 1418 1419 1420 1422 1423 1424 1425 1425 1426 1427 1427 1428 1428 1428
1429 1427 1426 1424 1422 1420 1418 1417 1415 1414 1413 1411 1411 1410 1408 1407 1406 1406 1407 1407 1407 1408 1408 1409 1409 1410 1411 1412 1413 1414 1415 1416 1417 1418 1419 1420 1421 1421 1422 1423 1423 1424 1424
1429 1427 1425 1423 1422 1420 1418 1416 1415 1413 1412 1411 1410 1408 1407 1406 1405 1405 1405 1405 1405 1406 1406 1407 1407 1407 1408 1408 1409 1410 1411 1412 1413 1414 1415 1416 1416 1417 1417 1418 1419 1419 1420
1428 1427 1425 1423 1421 1419 1418 1416 1414 1413 1412 1410 1409 1408 1407 1406 1405 1404 1404 1404 1404 1404 1404 1404 1404 1405 1405 1405 1406 1407 1407 1408 1409 1410 1411 1411 1412 1412 1413 1413 1414 1414 1415
1428 1426 1424 1423 1421 1419 1417 1416 1414 1413 1411 1410 1409 1408 1407 1406 1404 1404 1403 1403 1403 1403 1402 1402 1402 1402 1402 1402 1403 1403 1404 1404 1405 1406 1406 1407 1407 1408 1408 1409 1409 1410 1410
1427 1425 1424 1422 1420 1419 1417 1416 1414 1413 1411 1410 1408 1407 1406 1405 1403 1402 1402 1401 1401 1401 1400 1400 1400 1400 1399 1399 1399 1400 1400 1400 1401 1402 1402 1402 1403 1403 1404 1404 1405 1405 1406
1426 1424 1423 1421 1420 1418 1416 1415 1413 1412 1410 1409 1407 1406 1404 1403 1401 1401 1400 1399 1399 1398 1398 1397 1397 1396 1396 1396 1397 1397 1397 1397 1397 1398 1398 1398 1398 1399 1399 1399 1400 1400 1401
1425 1423 1422 1420 1418 1417 1415 1413 1412 1410 1409 1407 1405 1404 1402 1401 1400 1399 1398 1397 1396 1396 1395 1395 1394 1394 1393 1393 1393 1393 1393 1393 1393 1393 1394 1394 1394 1394 1395 1395 1395 1396 1396
1423 1422 1420 1418 1417 1415 1413 1412 1410 1408 1407 1405 1403 1402 1401 1399 1398 1397 1396 1395 1394 1393 1392 1391 1391 1390 1390 1390 1389 1389 1389 1389 1389 1389 1389 1389 1390 1390 1390 1391 1391 1391 1392
1421 1420 1418 1416 1415 1413 1411 1410 1408 1406 1405 1403 1401 1400 1398 1397 1395 1394 1393 1391 1390 1389 1388 1388 1387 1387 1386 1386 1385 1385 1385 1385 1385 1385 1385 1385 1385 1385 1386 1386 1387 1387 1388